Wind_Speed
29 32 36 37 37 37 33 32 31 32 32 34 34 34 35 34 34 33 32 31 32 32 32 32 33 33 33 32 32 32 32 32 31 31 30 30 31 31 29 29 26 26 26
29 32 33 33 33 33 35 36 36 35 33 34 35 35 36 37 39 39 38 37 37 36 36 37 36 36 37 37 36 36 36 35 34 33 32 32 31 30 30 29 28 27 29
37 34 34 35 33 35 32 33 33 33 34 37 39 41 41 40 39 39 39 40 41 41 41 42 42 42 41 41 42 41 39 36 37 37 35 34 35 35 35 34 33 33 33
44 42 40 39 36 37 36 36 36 34 33 32 33 35 38 40 43 44 42 41 41 40 41 41 42 43 43 41 41 40 41 41 40 40 39 39 38 38 38 37 37 37 36
49 47 46 45 44 44 44 43 38 35 37 38 35 34 33 31 33 34 37 40 43 42 45 46 47 48 48 47 46 46 47 47 47 47 45 44 43 42 42 41 40 40 39
56 53 50 47 45 45 47 46 45 46 44 43 42 35 32 30 29 29 27 26 24 26 30 36 41 45 51 53 53 53 53 53 52 53 53 51 49 48 47 46 45 44 43
55 54 52 51 50 49 47 45 44 45 46 46 45 43 44 41 35 30 31 27 24 21 26 29 32 34 36 40 49 53 54 55 56 55 53 53 51 52 52 52 51 49 49
57 55 55 54 54 52 49 47 44 42 45 44 46 47 45 45 45 42 34 30 28 24 26 24 23 20 22 29 34 36 39 45 51 53 53 54 53 52 52 52 53 53 54
62 59 58 58 56 56 52 46 44 43 43 47 46 45 45 45 47 45 41 32 37 35 30 27 33 35 34 36 35 37 40 41 44 46 49 52 53 51 52 54 53 54 55
65 61 60 60 59 57 53 49 45 43 43 42 44 46 48 45 43 46 48 42 40 39 36 35 34 35 33 36 37 39 39 40 43 44 44 43 46 49 50 51 52 52 54
69 65 62 61 61 59 57 53 50 47 44 41 41 42 40 39 41 41 45 47 41 42 45 41 41 40 36 36 39 37 39 41 45 46 45 44 44 46 46 47 48 49 48
73 69 66 65 64 62 61 60 54 52 48 46 44 43 39 39 38 39 40 40 37 40 46 43 41 39 38 38 37 36 40 41 43 41 42 44 44 43 44 46 45 43 36
77 74 71 68 66 65 64 61 57 54 50 48 47 46 46 46 45 40 40 41 42 42 43 44 41 41 39 39 39 38 38 40 37 41 38 38 39 40 40 35 28 23 22
80 79 74 72 69 67 63 60 58 53 51 50 50 49 48 47 49 46 42 45 45 44 46 43 46 47 42 38 38 40 46 42 41 41 38 39 34 30 28 27 24 31 35
81 80 77 74 72 67 66 60 57 55 55 49 51 53 49 49 49 48 47 45 46 48 46 46 48 48 40 37 43 45 48 42 42 45 35 36 34 36 28 30 32 34 36
81 82 79 75 72 68 65 63 58 56 56 51 52 55 54 52 49 46 47 47 48 48 47 48 49 41 39 42 45 46 44 42 50 49 39 41 40 40 37 37 36 44 39
87 84 80 74 73 70 62 60 58 58 54 52 55 57 54 51 46 46 43 47 48 49 49 45 39 38 43 41 42 45 47 56 55 45 44 46 35 38 41 42 41 38 37
88 82 78 75 73 69 67 62 60 58 54 55 56 53 53 49 47 44 47 47 51 48 46 44 45 48 49 51 56 61 63 59 58 46 43 35 41 40 47 48 48 41 36
94 83 65 81 70 62 61 61 61 59 56 53 54 54 51 48 46 50 52 52 44 46 46 46 47 54 61 60 61 68 54 49 46 46 42 43 41 46 51 50 46 41 47
96 90 87 75 72 65 63 64 63 60 58 56 53 56 50 51 51 52 53 49 49 49 50 55 60 66 65 65 63 54 51 46 47 49 49 43 45 56 54 46 42 47 48
95 96 92 88 78 73 64 62 62 58 57 51 49 49 50 49 47 50 51 51 51 52 55 61 66 65 64 61 56 48 43 47 44 48 48 47 58 55 58 54 50 51 62
93 92 93 87 77 68 63 61 57 57 56 52 51 52 52 49 50 52 50 46 50 50 63 71 70 61 59 49 43 43 51 48 51 51 57 61 62 67 67 63 61 62 65
87 91 90 84 74 70 61 56 55 49 52 53 52 47 45 44 49 49 51 48 46 62 68 62 59 58 62 56 48 56 61 53 58 62 65 64 69 65 65 64 64 62 65
83 87 87 83 77 70 64 61 59 59 52 53 53 48 53 50 49 50 53 55 62 62 55 54 56 57 62 58 57 62 63 66 68 68 68 70 68 68 65 59 70 76 78
81 81 81 72 61 65 58 61 58 56 52 49 47 50 48 40 44 49 49 49 56 58 54 56 60 62 67 67 72 70 71 74 76 81 79 76 72 64 68 84 81 82 88
78 78 76 72 64 46 58 58 57 58 56 53 50 44 43 48 50 54 47 57 56 62 66 69 67 66 70 72 71 74 75 75 84 89 86 68 70 80 91 91 92 99 102
Wind_Direction
247 241 243 245 248 248 249 250 251 254 257 258 259 260 262 262 263 262 263 263 264 263 264 268 272 277 278 279 280 282 282 284 284 284 283 281 278 280 282 284 282 282 283
246 244 243 242 246 247 248 250 251 251 254 257 260 263 264 264 264 264 265 266 265 267 271 273 272 274 278 278 279 280 281 282 281 281 280 278 277 277 278 277 277 276 279
244 244 242 249 248 251 249 253 252 252 255 258 260 262 263 264 265 267 269 270 271 272 272 273 274 274 276 277 279 279 278 279 284 284 281 281 277 276 276 277 276 276 277
245 247 240 241 247 245 246 249 248 249 253 258 261 263 268 267 266 266 267 269 272 273 275 277 278 277 275 275 275 277 278 280 281 284 285 284 282 281 280 278 279 279 278
241 245 246 244 246 249 251 254 251 249 255 260 260 260 260 265 269 271 269 267 269 272 273 272 274 275 275 274 274 275 277 279 281 282 283 283 282 281 281 281 279 281 281
242 243 241 243 246 250 250 252 255 255 258 258 258 253 254 261 266 261 270 265 269 270 273 275 274 273 272 272 273 275 276 277 278 279 282 281 280 280 280 279 279 280 279
242 243 242 244 245 245 248 250 254 256 259 255 258 256 256 259 261 249 263 265 271 285 284 284 280 275 277 284 280 275 274 276 278 279 280 280 279 279 278 279 279 279 279
240 242 245 247 246 243 247 252 254 258 259 256 258 259 256 256 257 256 256 266 271 289 296 292 298 291 296 306 301 290 287 284 280 278 278 277 276 277 278 278 278 278 278
241 244 245 245 246 245 245 249 254 257 258 261 261 261 260 258 255 258 253 263 269 273 300 291 288 289 302 306 301 299 289 287 285 282 282 279 277 276 276 276 277 276 275
241 243 245 244 245 246 244 248 252 259 259 263 263 266 259 261 267 265 258 260 263 267 287 289 292 289 299 306 298 297 299 294 291 288 286 286 284 281 278 275 275 276 276
239 241 241 241 243 242 246 250 254 256 260 262 264 266 263 262 262 267 268 262 263 266 279 289 289 284 288 303 305 296 298 300 292 293 289 289 286 283 280 278 278 277 276
238 240 239 239 242 244 247 252 254 255 259 262 263 266 256 257 266 267 266 258 266 273 276 285 291 287 288 298 301 296 298 305 303 299 298 291 285 284 282 281 279 281 282
240 238 238 239 241 243 249 252 254 256 259 261 265 268 265 260 263 264 262 260 267 275 282 286 290 290 284 297 302 295 300 299 311 311 304 302 293 288 288 286 282 277 292
239 239 238 239 241 243 245 250 253 257 258 260 264 267 269 265 266 262 260 263 270 280 285 286 289 290 287 292 297 290 301 293 302 310 304 303 300 296 295 283 283 294 301
241 238 238 240 241 244 247 247 251 255 256 261 264 267 272 270 269 265 263 267 276 283 287 287 291 289 282 286 299 298 296 291 300 305 299 294 292 296 294 293 287 293 294
235 240 241 241 242 244 246 247 248 254 256 262 262 265 274 272 270 264 266 271 276 289 287 288 287 283 283 289 299 295 289 291 293 299 293 294 293 291 279 291 288 291 300
233 237 241 242 246 245 243 244 247 251 256 258 259 266 272 268 269 270 273 279 282 286 282 283 283 284 293 296 287 289 289 292 292 293 290 297 298 289 286 313 308 304 308
232 235 239 240 243 244 244 246 247 250 254 256 259 265 269 268 274 277 279 275 281 281 275 272 275 288 295 291 288 293 295 295 295 280 293 294 286 305 311 310 308 303 305
230 229 243 239 238 241 241 245 248 249 251 254 261 265 266 270 275 271 279 277 271 268 269 275 284 292 295 296 294 300 291 291 294 273 293 291 286 302 307 305 307 302 307
231 228 225 235 235 239 241 244 246 244 248 254 259 268 273 270 272 268 275 268 266 270 275 286 289 292 294 297 296 290 284 299 301 272 291 290 292 304 305 296 295 298 302
229 230 230 232 232 237 241 242 245 244 246 247 258 265 263 261 263 273 264 266 270 284 284 285 294 296 293 292 295 281 276 296 292 290 287 284 296 289 298 299 285 285 294
223 226 229 231 231 235 239 240 243 245 243 244 254 259 258 255 259 262 267 276 278 284 293 293 292 282 291 284 273 278 290 285 298 288 291 294 291 296 297 298 291 285 292
223 224 227 229 230 232 233 235 238 244 246 245 247 251 244 254 262 266 269 275 277 285 291 290 283 283 289 287 266 283 293 295 296 295 292 291 296 295 293 297 289 288 296
220 222 223 225 227 229 231 238 240 246 245 246 251 245 251 258 269 267 270 270 286 291 285 280 277 282 287 287 279 289 290 291 293 296 296 296 293 295 299 291 298 292 291
216 220 222 218 228 229 231 240 238 241 243 241 246 261 263 259 252 264 270 286 285 280 275 277 278 278 282 283 288 289 291 292 296 293 295 295 298 288 291 294 290 292 290
215 216 219 213 213 221 223 232 237 239 237 245 250 248 242 245 252 261 270 270 273 269 275 277 282 282 283 286 282 287 289 291 291 293 296 296 286 287 292 288 289 291 293
Height
10931 10932 10933 10934 10935 10937 10938 10939 10941 10942 10943 10944 10944 10944 10944 10946 10946 10946 10947 10947 10948 10947 10946 10946 10946 10946 10945 10944 10943 10943 10942 10942 10942 10941 10941 10941 10941 10941 10941 10941 10941 10941 10941
10926 10927 10927 10928 10929 10931 10932 10933 10934 10936 10937 10937 10938 10938 10938 10939 10940 10940 10941 10941 10942 10942 10941 10941 10941 10941 10941 10940 10938 10937 10937 10936 10936 10936 10935 10935 10935 10935 10935 10936 10936 10936 10936
10919 10921 10922 10923 10924 10926 10927 10928 10929 10930 10931 10932 10932 10932 10932 10933 10934 10934 10935 10935 10936 10936 10935 10935 10934 10934 10934 10934 10933 10932 10931 10931 10930 10930 10931 10930 10929 10930 10930 10930 10930 10931 10931
10912 10914 10915 10917 10919 10920 10922 10923 10923 10925 10925 10926 10927 10927 10926 10926 10926 10928 10930 10929 10930 10931 10930 10929 10929 10928 10928 10927 10926 10925 10925 10924 10925 10924 10924 10924 10923 10923 10923 10923 10923 10923 10924
10902 10905 10907 10910 10912 10914 10916 10917 10919 10919 10920 10921 10922 10922 10921 10921 10920 10922 10923 10921 10923 10924 10923 10922 10921 10922 10922 10921 10919 10918 10917 10917 10917 10917 10917 10917 10916 10915 10916 10916 10916 10916 10916
10892 10895 10898 10902 10904 10906 10908 10910 10912 10914 10915 10914 10916 10916 10916 10916 10915 10916 10917 10916 10917 10916 10916 10915 10914 10913 10913 10912 10912 10911 10910 10909 10909 10909 10909 10909 10909 10908 10908 10908 10908 10907 10907
10881 10885 10889 10892 10896 10898 10899 10902 10904 10906 10907 10908 10909 10910 10910 10911 10911 10910 10912 10912 10911 10910 10910 10909 10907 10906 10906 10905 10904 10902 10901 10900 10899 10900 10900 10900 10900 10900 10900 10899 10899 10899 10899
10871 10874 10878 10882 10886 10889 10892 10894 10896 10898 10899 10901 10901 10902 10903 10904 10904 10905 10906 10905 10904 10904 10903 10903 10902 10900 10899 10899 10898 10896 10894 10893 10892 10891 10890 10889 10890 10890 10890 10889 10889 10888 10887
10860 10864 10867 10871 10875 10879 10883 10886 10888 10890 10891 10893 10895 10895 10896 10896 10897 10897 10898 10900 10898 10897 10897 10896 10896 10894 10893 10891 10890 10889 10887 10885 10884 10883 10881 10879 10880 10879 10878 10877 10878 10876 10876
10847 10852 10857 10861 10865 10869 10874 10877 10879 10881 10883 10885 10886 10886 10888 10889 10889 10889 10890 10891 10891 10889 10889 10888 10888 10887 10886 10883 10883 10881 10880 10878 10876 10875 10872 10871 10870 10868 10867 10867 10866 10865 10864
10832 10839 10844 10850 10855 10859 10863 10867 10871 10873 10875 10877 10878 10879 10880 10881 10881 10881 10881 10882 10882 10882 10882 10881 10880 10879 10878 10876 10874 10873 10873 10871 10870 10867 10864 10862 10860 10859 10857 10856 10856 10854 10853
10816 10824 10832 10838 10844 10849 10853 10857 10861 10863 10867 10869 10870 10871 10871 10872 10873 10874 10873 10873 10874 10873 10874 10874 10872 10871 10870 10868 10867 10865 10864 10863 10861 10858 10855 10853 10850 10849 10848 10846 10845 10845 10843
10802 10810 10816 10825 10832 10838 10844 10848 10851 10855 10858 10859 10861 10862 10862 10863 10864 10865 10864 10864 10864 10864 10865 10865 10863 10862 10861 10860 10858 10856 10855 10855 10853 10850 10847 10845 10842 10840 10839 10838 10837 10836 10834
10787 10796 10804 10811 10819 10827 10834 10839 10843 10845 10849 10850 10852 10853 10854 10854 10855 10856 10856 10855 10856 10856 10855 10855 10854 10853 10852 10850 10849 10848 10847 10845 10843 10842 10839 10837 10836 10833 10832 10831 10830 10828 10826
10771 10781 10790 10798 10807 10816 10824 10829 10833 10836 10838 10841 10842 10843 10844 10844 10845 10846 10847 10847 10847 10847 10846 10845 10844 10843 10842 10841 10840 10839 10837 10836 10835 10834 10831 10828 10827 10826 10824 10824 10823 10821 10819
10753 10768 10777 10786 10795 10805 10812 10818 10822 10825 10828 10831 10831 10832 10834 10835 10836 10836 10837 10838 10838 10836 10835 10835 10834 10833 10832 10831 10829 10829 10829 10827 10825 10824 10822 10819 10817 10817 10815 10815 10814 10811 10809
10744 10753 10766 10778 10783 10793 10800 10806 10811 10814 10818 10820 10820 10822 10824 10826 10826 10827 10828 10827 10827 10826 10825 10824 10824 10823 10822 10821 10820 10820 10818 10817 10815 10813 10811 10809 10808 10806 10807 10804 10801 10799 10797
10734 10743 10754 10765 10771 10781 10790 10797 10801 10804 10808 10808 10810 10811 10814 10816 10816 10817 10817 10816 10816 10815 10815 10814 10813 10812 10810 10810 10810 10808 10805 10804 10803 10801 10800 10796 10795 10792 10791 10789 10789 10788 10787
10717 10736 10744 10742 10759 10769 10779 10785 10790 10794 10797 10798 10798 10801 10805 10805 10807 10807 10806 10806 10806 10805 10805 10803 10803 10801 10799 10797 10797 10794 10792 10793 10789 10788 10786 10783 10781 10779 10777 10776 10775 10774 10775
10703 10717 10723 10727 10747 10757 10767 10772 10778 10782 10786 10787 10787 10792 10794 10794 10795 10795 10796 10795 10794 10794 10793 10793 10791 10789 10787 10785 10783 10780 10778 10776 10773 10773 10771 10769 10767 10766 10764 10762 10760 10760 10759
10686 10700 10710 10720 10735 10745 10753 10761 10767 10771 10775 10778 10779 10782 10782 10783 10784 10784 10783 10782 10782 10782 10781 10778 10777 10774 10772 10771 10768 10766 10763 10761 10758 10758 10756 10756 10753 10751 10748 10748 10746 10745 10743
10664 10677 10693 10707 10725 10734 10743 10750 10754 10758 10764 10769 10771 10773 10770 10771 10771 10772 10770 10769 10769 10768 10768 10766 10762 10758 10757 10753 10753 10752 10750 10747 10746 10745 10743 10741 10740 10737 10732 10731 10729 10728 10725
10648 10662 10675 10693 10712 10722 10733 10739 10743 10748 10752 10757 10760 10761 10760 10760 10761 10761 10759 10758 10757 10758 10756 10751 10747 10743 10743 10739 10738 10736 10734 10733 10731 10730 10729 10725 10721 10718 10715 10712 10710 10708 10706
10631 10645 10660 10683 10702 10714 10728 10732 10737 10740 10743 10745 10748 10749 10750 10750 10749 10749 10748 10748 10748 10743 10742 10738 10732 10727 10727 10725 10725 10722 10720 10718 10715 10712 10710 10706 10703 10700 10697 10693 10691 10693 10690
10621 10633 10650 10679 10699 10711 10723 10722 10727 10731 10732 10733 10736 10738 10739 10739 10738 10734 10736 10736 10734 10731 10730 10726 10721 10719 10715 10711 10711 10707 10704 10699 10696 10692 10690 10686 10684 10681 10677 10675 10671 10670 10666
10610 10626 10642 10668 10689 10698 10705 10710 10715 10718 10722 10725 10727 10728 10728 10726 10725 10725 10727 10725 10721 10720 10716 10715 10712 10709 10705 10701 10697 10693 10690 10685 10679 10675 10672 10671 10665 10665 10657 10655 10652 10648 10643